Lancaster, CA

5:11 PM PDT on June 21, 2018 (GMT -0700)
Gen Fox

Weather History for KWJF - October, 2017

Change the Weather History Date:

Monday, October 9, 2017

  Actual Average Record
Temperature  
Mean Temperature 58 °F 65 °F  
Max Temperature 74 °F 82 °F 98 °F (1980)
Min Temperature 41 °F 48 °F 35 °F (1990)
Degree Days  
Heating Degree Days 7    
Month to date heating degree days 27  
Since 1 July heating degree days 47  
Cooling Degree Days 0    
Month to date cooling degree days 20  
Year to date cooling degree days 2191  
Growing Degree Days 8 (Base 50)    
Moisture  
Dew Point 13 °F    
Average Humidity 28    
Maximum Humidity 49    
Minimum Humidity 7    
Precipitation  
Precipitation 0.00 in 0.01 in 0.03 in (1985)
Month to date precipitation 0.00 0.08  
Year to date precipitation 4.62 5.33  
Snow  
Snow 0.00 in - 0.00 in ()
Month to date snowfall 0.0  
Since 1 July snowfall 0.0  
Since 1 September snowfall 0.0  
Snow Depth 0.00 in    
Sea Level Pressure  
Sea Level Pressure 30.04 in    
Wind  
Wind Speed 13 mph (ENE)    
Max Wind Speed 28 mph    
Max Gust Speed 36 mph    
Visibility 10 miles    
Events      
T = Trace of Precipitation, MM = Missing Value Source: NWS Daily Summary

Daily Weather History Graph

Daily Weather History Graph

Search for Another Location

Airport or City:

Astronomy

Oct. 09, 2017 Rise Set
Actual Time 6:54 AM PDT 6:25 PM PDT
Civil Twilight 6:28 AM PDT 6:50 PM PDT
Nautical Twilight 5:59 AM PDT 7:19 PM PDT
Astronomical Twilight 5:30 AM PDT 7:49 PM PDT
Moon 9:47 PM PDT (10/9) 11:01 AM PDT (10/9)
Length of Visible Light 12h 21m
Length of Day
11h 31m
Waning Gibbous, 80% of the Moon is Illuminated
Oct 9
Waning Gibbous
Oct 12
Last Quarter
Oct 19
New
Oct 27
First Quarter
Nov 3
Full

Hourly Weather History & Observations

Time (PDT) Temp. Windchill Dew Point Humidity Pressure Visibility Wind Dir Wind Speed Gust Speed Precip Events Conditions
12:56 AM 61.0 °F - 41.0 °F 48% 29.85 in 10.0 mi NW 6.9 mph - N/A   Clear
1:56 AM 61.0 °F - 30.0 °F 31% 29.88 in 10.0 mi ENE 12.7 mph - N/A   Clear
2:56 AM 60.1 °F - 25.0 °F 26% 29.92 in 10.0 mi East 9.2 mph - N/A   Clear
3:56 AM 57.0 °F - 19.9 °F 24% 29.95 in 10.0 mi East 12.7 mph - N/A   Clear
4:56 AM 52.0 °F - 18.0 °F 26% 29.99 in 10.0 mi ESE 8.1 mph - N/A   Clear
5:56 AM 52.0 °F - 17.1 °F 25% 30.02 in 10.0 mi East 9.2 mph - N/A   Clear
6:56 AM 54.0 °F - 12.0 °F 19% 30.05 in 10.0 mi East 11.5 mph - N/A   Clear
7:56 AM 57.0 °F - 10.9 °F 16% 30.07 in 10.0 mi East 15.0 mph - N/A   Clear
8:56 AM 61.0 °F - 10.9 °F 14% 30.10 in 10.0 mi East 20.7 mph 28.8 mph N/A   Clear
9:56 AM 64.0 °F - 10.0 °F 12% 30.11 in 10.0 mi East 24.2 mph 31.1 mph N/A   Clear
10:56 AM 66.9 °F - 10.9 °F 11% 30.11 in 10.0 mi East 20.7 mph 33.4 mph N/A   Clear
11:56 AM 69.1 °F - 12.0 °F 11% 30.10 in 10.0 mi East 19.6 mph 32.2 mph N/A   Clear
12:56 PM 71.1 °F - 9.0 °F 9% 30.08 in 10.0 mi East 21.9 mph 31.1 mph N/A   Clear
1:56 PM 72.0 °F - 9.0 °F 9% 30.06 in 10.0 mi East 18.4 mph 35.7 mph N/A   Clear
2:56 PM 73.0 °F - 6.1 °F 7% 30.03 in 10.0 mi ENE 23.0 mph 32.2 mph N/A   Clear
3:56 PM 73.0 °F - 6.1 °F 7% 30.02 in 10.0 mi ENE 21.9 mph 28.8 mph N/A   Clear
4:56 PM 72.0 °F - 5.0 °F 7% 30.03 in 10.0 mi East 17.3 mph - N/A   Clear
5:56 PM 70.0 °F - 8.1 °F 9% 30.03 in 10.0 mi East 10.4 mph - N/A   Clear
6:56 PM 63.0 °F - 8.1 °F 11% 30.05 in 10.0 mi ESE 5.8 mph - N/A   Clear
7:56 PM 60.1 °F - 8.1 °F 13% 30.06 in 10.0 mi ESE 3.5 mph - N/A   Clear
8:56 PM 50.0 °F - 7.0 °F 18% 30.08 in 10.0 mi NNE 8.1 mph - N/A   Clear
9:56 PM 48.9 °F - 7.0 °F 18% 30.09 in 10.0 mi NW 3.5 mph - N/A   Clear
10:56 PM 44.1 °F 42.5 °F 6.1 °F 21% 30.10 in 10.0 mi NW 3.5 mph - N/A   Clear
11:56 PM 44.1 °F - 7.0 °F 22% 30.09 in 10.0 mi Calm Calm - N/A   Clear